CAPE
1536 1430 1307 1289 1249 1295 1418 1288 1314 1357 1357 1348 1230 1408 1628 1854 1698 1742 1664 1497 1298 1367 1353 1477 1445 1458 1404 1409 1360 1331 1320 1321 1241 980 853 912 1016 1252 1256 1306 1244 1167 1111 1121 1124 1113 1000 853 585 152 390 584 524 390 269 1002 1794 1782 2000 2229 2240 2265 2231 2061 2129 1893 2120 1825 1428 980 1441 1648 1400 1862 1737 1740 1696 1552 1654 1628 1602 1506 994 687 766
1673 1524 1448 1327 1178 1347 1422 1300 1165 1236 1254 1265 1269 1520 1672 1719 1692 1579 1550 1464 1616 1393 1444 1633 1641 1571 1454 1340 1487 1437 1401 1330 1164 987 933 980 1054 1102 1140 1144 1262 1299 1286 1235 1210 1154 1087 890 225 280 488 587 636 201 208 344 1192 1552 1830 2128 2250 2134 2167 2130 2096 1954 1922 1783 1500 1370 1148 1391 1643 1865 1601 1551 1534 1479 1364 1324 1429 1550 1305 678 745
1666 1572 1474 1231 1031 1108 1110 1140 1173 1272 1278 1270 1329 1449 1482 1752 1936 1528 1550 1454 1315 1095 1278 1410 1395 1407 1338 1345 1397 1483 1462 1386 1234 1082 987 931 1058 1204 1231 1169 1165 1237 1196 1180 1190 1178 1110 952 410 192 423 546 554 198 96 244 864 1200 1397 1724 1847 2029 2384 2267 2152 2277 2278 2208 1926 1649 1642 1544 1840 1932 1466 1263 1153 1471 1344 1321 1310 1326 1088 830 760
1561 1492 1258 1003 1033 1229 1354 1387 1395 1283 1180 1221 1304 1355 1154 1435 1419 1365 1402 1358 1401 1070 1216 1275 1214 1310 1338 1363 1427 1291 1330 1400 1423 1429 1336 1040 1099 1176 1270 1309 1293 1278 1241 1194 1244 1257 1211 1090 811 183 328 554 597 370 80 283 474 754 978 859 1498 1640 2215 2611 2423 2120 2140 2229 2194 1406 1889 1422 1697 1755 1294 1210 1586 1483 1407 1268 1131 1082 966 999 979
1364 1334 1091 998 1113 1166 1166 1288 1342 1436 1273 1085 1085 1046 1230 1539 1438 1369 1417 1670 1383 1434 1371 1328 1187 1235 1306 1309 1373 1322 1227 1108 1163 1273 1181 1068 1096 1260 1310 1348 1361 1351 1311 1224 1448 1160 1148 1098 974 614 483 667 758 647 515 367 510 622 637 734 950 1107 1803 2589 2592 2490 2200 2157 2096 2346 1849 1469 1478 1580 1579 1426 1463 1368 1412 1303 1242 1110 1057 1036 1030
1366 1301 1294 1303 1486 1519 1350 1209 1248 1209 1209 1348 1411 1396 1353 1293 1282 1334 1431 1328 1158 1148 1278 1412 1379 1156 1221 1263 1285 1219 1157 1140 1056 1028 1176 1229 1191 1142 1154 1303 1306 1311 1298 1239 1198 1201 1192 1041 898 666 542 656 646 566 516 462 440 606 734 903 1181 1199 1230 1580 2343 2590 2426 2222 2112 1802 1775 1758 1560 1334 1267 1446 1310 1231 1157 1179 1126 973 1092 909 649
1465 1641 1580 1527 1583 1589 1474 1280 1267 1233 1203 1039 1075 1173 1193 1093 1017 1053 1220 1385 1483 1172 981 1158 1180 1313 1300 1255 1349 1241 1092 1027 951 887 925 1081 1049 1113 1120 1237 1308 1301 1270 1236 1203 1192 1177 1004 786 652 590 530 541 558 526 373 843 834 902 1131 1259 1236 1285 1223 1996 2563 2447 2160 2011 1749 1698 1511 1522 1460 1203 1143 1149 1257 1074 785 808 892 1000 783 695
1629 1714 1670 1552 1556 1494 1489 1422 1273 1289 1295 1371 1386 1382 1183 1244 1127 1104 1418 1310 1214 1390 1733 1723 1406 1349 1316 1515 1433 1249 1054 1030 923 782 715 1133 1266 1129 1078 1098 1068 1186 1207 1156 1119 1093 1021 887 612 364 398 431 442 519 449 579 1210 1424 1315 1212 1109 1188 1415 1470 1577 2083 2253 2080 1912 1969 1582 1455 1328 1185 1081 991 970 1030 978 927 914 766 698 619 516
1652 1650 1596 1691 1754 1788 1923 1769 1583 1752 1309 1262 1320 1337 1357 1370 1313 1359 1759 1634 1529 1493 1540 1850 1798 1894 1702 1452 1334 1215 1409 1391 1264 1148 1188 1342 1420 1410 1344 1032 1008 956 842 1043 1071 993 850 780 698 461 794 1835 2066 1856 1347 1459 976 982 1295 1482 1252 1381 1562 1497 1567 1783 1922 2030 1686 1805 1802 1497 1443 1325 1168 981 890 791 554 776 879 801 740 696 604
1777 1733 1643 1724 1808 1824 1517 1360 1249 1138 1101 1075 1086 1182 1264 1354 1410 1436 1452 1718 1487 1423 1383 1611 1875 2011 2138 1901 1724 1453 1205 964 1335 1417 1496 1407 1260 1240 1316 1273 1264 1212 1071 848 667 821 872 830 820 1925 2569 3276 3672 3833 2959 2777 2450 844 604 1889 1618 1554 1604 1594 1808 1744 1853 1845 1868 1742 1637 1648 1526 1210 1065 985 879 818 737 698 718 698 575 632 575
1172 1030 1295 1510 1478 1457 1306 1210 1152 1046 922 816 816 894 1038 1094 1141 1244 1324 1341 1511 1821 1950 1472 1571 1929 2110 1960 1864 1706 1805 1763 2241 2077 1680 1898 1444 1026 1185 1203 1156 1234 1278 1344 1266 1075 1092 1210 1403 1963 3120 4261 4342 3986 3801 3219 3130 2729 2521 2815 2591 1676 1653 1989 2256 2121 1794 1751 1831 1817 1674 1666 1528 1406 1174 919 967 990 949 908 880 769 635 527 448
981 988 1005 1008 1056 1077 965 874 828 776 702 629 564 554 628 784 926 1011 1031 1010 997 1046 1186 1448 1496 1582 1544 1540 1682 1614 1896 2603 2393 2091 1579 1202 1253 1206 1010 1008 994 1180 1204 1364 1240 1272 1247 1258 1492 2469 3377 3234 2634 2382 3378 4193 3523 3201 2990 3504 4376 3700 2444 2003 1806 1872 1801 1723 1836 1900 1863 1751 1693 1436 1168 948 952 1128 1225 1286 1146 942 755 634 536
996 966 946 887 838 768 695 634 545 458 380 341 282 214 201 318 512 727 846 937 970 983 968 985 1012 1055 1553 1610 1618 1652 1637 1572 2174 2046 1737 1631 1348 1247 950 1065 999 1209 1089 1204 1190 1187 1229 1336 1696 2401 2411 3179 2489 2058 2494 2965 3604 3532 3683 4079 4945 4428 2947 2330 2220 1847 1630 1718 1860 1991 1905 1731 1513 1314 1153 1096 1075 1216 1267 1202 1138 1064 898 795 734
926 896 839 811 752 706 649 582 503 404 330 275 183 303 326 283 433 494 538 574 692 793 847 880 884 912 938 1429 1586 1807 1841 1864 1925 1868 1839 1890 1808 1506 1150 1024 1046 1058 1211 1094 1174 1204 1201 1425 1595 1778 1593 2160 1695 1533 1626 1979 2253 2604 2654 2484 2721 3830 4550 3201 2664 3416 2535 1876 1946 1854 1642 1431 1269 1187 1174 1151 1213 1287 1311 1272 1164 1066 925 821 764
868 784 727 650 592 549 488 415 341 262 167 142 198 184 208 175 207 325 221 261 265 262 264 244 424 680 762 889 1257 1581 1560 1624 1696 1607 1495 1610 1775 1785 1713 1468 1123 1118 1113 976 1021 1081 2174 1831 1284 1312 1266 1207 1501 1522 1377 1296 1240 1366 1602 1776 1824 1712 2144 2984 3289 3393 3516 2459 2038 1744 1598 1436 1321 1277 1356 1386 1358 1223 1196 1177 1091 887 752 776 796
717 684 620 555 474 408 330 276 224 81 56 70 89 105 100 122 265 360 350 112 87 100 106 282 690 984 1096 1096 1058 1197 1403 1410 1254 1265 1352 1453 1702 1866 1818 1671 1584 1406 1152 962 986 998 1152 1147 1160 1072 1073 1675 2395 2371 2035 1240 988 959 954 1211 1619 1971 2230 2332 2692 3122 3146 3140 3037 2861 2688 2491 2411 2104 1851 1780 1659 1538 1310 964 720 648 675 792 732
578 537 511 448 404 367 312 262 223 192 69 40 60 74 174 118 141 214 60 52 56 106 373 563 695 781 834 869 963 1036 1153 1153 1224 1364 1423 1492 1620 1680 1639 1506 1404 1330 1521 1623 1104 1057 1112 1389 1477 1800 1900 2079 2200 2191 2002 2307 1530 1436 1234 1164 1527 1977 2324 2263 2510 2678 2798 2844 2729 2612 2531 2379 2323 2159 1951 1864 1810 1728 1510 1145 897 839 803 795 725
441 394 336 283 273 301 306 252 170 92 33 36 48 42 149 164 217 304 94 96 34 101 336 342 381 476 434 389 354 376 513 524 576 786 988 1104 1212 1293 1372 1342 1302 1222 1535 1623 1392 1242 1161 1524 1564 1184 1419 1887 2124 2165 2061 1835 1702 1594 1498 1450 1373 1276 1300 1348 1496 1544 1508 1504 1652 1831 1913 1893 1847 1925 2089 2076 1904 1840 1533 1314 885 727 804 872 991
435 402 353 293 273 249 66 1 1 12 31 38 47 72 82 152 212 133 114 91 96 167 282 222 198 251 346 388 373 405 461 434 352 264 397 482 754 1058 1182 1252 1212 1229 1223 1376 1481 1482 1364 1266 1297 1379 1368 1346 1408 1606 1778 1795 1770 1705 1713 1655 1619 1576 1557 1474 1475 1441 1414 1393 1389 1358 1339 1311 1335 1423 1582 1454 1610 1358 1306 1313 1125 980 899 894 914
403 394 387 362 343 306 264 80 7 0 1 0 0 63 117 139 130 98 71 29 8 0 28 170 131 116 128 134 146 155 238 220 127 117 103 153 225 713 1009 1089 1152 1107 1087 1115 1074 1020 1073 1027 1013 1046 1098 1142 1370 1611 1694 1680 1628 1598 1600 1599 1596 1633 1500 1518 1554 1531 1445 1342 1289 1145 1037 1022 1036 1045 1114 1215 891 1130 1173 1031 954 925 890 763 783
395 370 161 0 0 0 0 0 11 8 4 14 70 90 114 95 68 31 0 0 0 0 0 31 86 69 48 24 60 86 62 36 27 20 36 86 147 274 546 671 892 982 978 889 862 899 993 986 929 939 951 982 1130 1219 1372 1491 1545 1580 1586 1586 1523 1434 1404 1397 1347 1284 1261 1215 1135 1004 914 875 865 848 866 813 775 360 470 471 462 548 596 654 617
412 298 0 0 0 0 0 0 0 1 17 0 0 0 32 14 34 2 2 0 0 0 0 32 48 31 21 8 2 0 0 0 0 0 0 0 0 0 235 604 752 856 914 937 830 814 782 748 721 679 632 691 770 906 1034 1084 1103 1109 1138 1172 1104 998 1096 1090 1149 1210 1242 1128 1020 805 666 680 686 586 538 533 590 399 400 419 412 379 382 299 234
446 355 0 0 0 0 0 45 10 0 0 0 0 0 0 2 4 15 20 7 2 4 10 29 28 18 10 4 2 1 5 0 0 0 0 0 0 0 0 296 594 712 723 763 729 697 621 595 540 530 501 424 415 473 593 694 769 863 936 950 848 686 706 756 808 839 796 790 625 563 538 466 281 160 248 286 367 362 296 234 145 205 146 37 97
486 407 213 0 0 0 0 0 0 0 0 0 0 0 0 1 4 12 14 18 13 8 6 19 9 5 5 9 15 15 9 0 1 1 0 0 0 0 79 234 383 475 455 524 476 411 312 277 259 175 169 138 147 167 210 253 340 393 473 575 669 632 362 2 438 598 616 570 476 400 386 368 364 242 194 180 166 147 199 222 203 106 20 2 58
477 385 0 0 0 0 0 0 0 0 0 0 0 0 0 0 3 9 13 11 13 9 8 0 1 7 20 25 27 8 0 27 39 76 48 0 1 20 58 229 295 312 350 385 329 258 175 116 91 101 75 48 50 65 34 13 0 0 0 0 0 0 8 34 161 290 277 72 30 124 122 107 83 65 58 97 147 90 12 38 18 10 0 7 16
442 0 0 0 0 0 0 0 0 2 2 0 0 0 0 0 2 6 8 12 12 10 23 6 1 24 37 36 105 170 111 182 237 171 207 82 94 128 152 186 239 263 262 281 273 236 177 175 183 146 118 92 25 0 0 0 0 0 0 0 0 0 2 17 41 45 25 0 30 32 25 10 1 1 1 55 56 6 0 0 0 0 0 0 0
208 0 0 0 0 0 0 0 0 0 0 0 0 0 0 1 0 0 3 3 5 6 4 33 9 1 2 22 196 258 338 307 253 236 215 210 160 117 141 212 237 264 232 235 211 181 133 98 60 41 31 10 0 0 0 0 0 0 1 1 2 6 20 29 62 80 96 129 141 109 123 137 121 98 82 67 88 33 1 1 0 1 0 0 0
100 0 0 0 0 0 0 0 0 0 0 0 0 0 0 0 0 0 0 1 1 0 0 4 10 7 6 6 4 94 308 338 300 284 291 337 344 326 214 151 182 204 192 153 115 94 68 56 32 5 0 0 0 0 0 1 2 3 3 3 0 3 5 7 22 36 70 98 131 116 136 140 108 100 12 5 4 6 4 2 2 2 0 0 0
18 0 0 0 0 0 0 0 0 0 0 0 0 0 0 0 0 0 0 0 0 0 0 2 19 13 14 13 10 3 0 227 166 0 136 138 245 344 298 92 0 3 62 113 12 148 179 193 0 0 0 0 0 0 0 0 0 0 1 2 4 2 1 1 1 0 1 7 14 23 22 6 4 5 4 6 7 8 4 4 3 1 1 0 0
0 0 0 0 0 0 0 0 0 0 0 0 0 0 0 0 0 0 0 0 0 0 0 0 7 14 11 7 2 0 133 267 122 10 9 1 0 0 0 0 13 0 0 0 1 0 0 0 0 0 0 0 0 0 0 0 0 0 0 0 1 1 3 5 4 6 6 5 4 2 1 2 3 4 3 3 4 4 1 0 0 0 0 0 3
0 0 0 0 0 0 0 0 0 0 0 0 0 0 0 0 0 0 0 0 0 0 0 0 0 1 0 0 1 5 3 4 222 264 273 188 0 0 0 0 6 14 10 1 47 0 0 0 0 0 0 0 0 0 0 0 0 0 0 0 0 0 0 1 1 2 2 1 1 0 1 2 2 2 2 2 5 5 1 2 0 0 12 8 0
0 0 0 0 0 0 0 0 0 0 0 0 0 0 0 0 0 0 0 0 0 0 0 0 0 1 0 0 0 0 111 176 162 182 196 0 0 1 2 13 17 14 11 4 0 0 0 0 0 0 0 0 0 0 0 0 0 1 2 1 0 0 1 2 5 10 8 4 2 1 3 5 4 8 6 6 9 10 10 0 0 0 0 0 0
0 0 0 0 0 0 0 0 0 0 0 0 0 0 0 0 0 0 0 0 0 0 0 0 0 0 0 0 0 0 0 0 0 0 0 0 0 0 2 14 13 1 0 0 0 0 0 0 0 0 0 0 0 0 0 0 0 0 1 0 0 1 2 1 5 4 2 1 1 3 6 9 8 8 6 0 2 4 2 5 5 0 0 0 0
0 0 0 0 0 0 0 0 0 0 0 0 0 0 0 0 0 0 0 0 0 0 0 0 0 0 0 0 0 0 0 0 0 0 0 0 1 0 0 0 0 0 0 0 0 0 0 0 0 0 0 0 0 0 0 0 0 0 0 0 0 0 0 0 0 0 5 5 8 6 7 6 3 0 0 0 0 0 0 0 0 0 0 0 0
0 48 0 0 0 0 0 0 0 0 0 0 0 0 0 0 0 0 0 0 0 0 0 0 0 0 0 0 0 0 0 0 0 0 0 0 0 0 0 0 0 0 0 0 0 0 0 0 0 0 0 0 0 0 0 0 0 0 0 0 0 0 0 0 0 0 0 0 0 0 0 0 0 0 0 0 0 0 0 0 0 0 0 0 0
0 6 2 0 0 0 0 0 0 0 0 0 0 0 0 0 0 0 0 0 0 0 0 0 0 0 0 0 0 0 0 0 0 0 0 0 0 0 0 0 0 0 0 0 0 0 0 0 0 0 0 0 0 0 0 0 0 0 0 0 0 0 0 0 0 0 0 0 0 0 0 0 0 0 0 0 0 0 0 0 0 0 0 0 0
14 18 0 0 0 0 0 0 0 0 0 0 0 0 0 0 0 0 0 0 0 0 0 0 0 0 0 0 0 0 0 0 0 0 0 0 0 0 0 0 0 0 0 0 0 0 0 0 0 0 0 0 0 0 0 0 0 0 0 0 0 0 0 0 0 0 0 0 0 0 0 0 0 0 0 0 0 0 0 0 0 0 0 0 4
20 26 0 0 0 0 0 0 0 0 0 0 0 0 0 0 0 0 0 0 0 0 0 0 0 0 0 0 0 0 0 0 0 0 0 0 0 0 0 0 0 0 0 0 0 0 0 0 0 0 0 0 0 0 0 0 0 0 0 0 0 0 0 0 0 0 0 0 0 0 0 0 0 0 0 0 0 0 0 0 0 0 0 0 4
5 10 0 0 0 0 0 0 0 0 0 0 0 0 0 0 0 0 0 0 0 0 0 0 0 0 0 0 0 0 0 0 0 0 0 0 0 0 0 0 0 0 0 0 0 0 0 0 0 0 0 0 0 0 0 0 0 0 0 0 0 0 0 0 0 0 0 0 0 0 0 0 0 0 0 0 0 0 0 0 0 0 0 0 0
330 36 0 0 0 0 0 0 1 0 0 0 0 0 0 0 0 0 0 0 0 0 0 0 0 0 0 0 0 0 0 0 0 0 0 0 0 0 0 0 0 0 0 0 0 0 0 0 0 0 0 0 0 0 0 0 0 0 0 0 0 0 0 0 0 0 0 0 0 0 0 0 0 0 0 0 0 0 0 0 0 0 0 0 0
246 247 124 2 0 0 21 0 0 0 0 0 0 0 0 0 0 0 0 0 0 0 0 0 0 0 0 0 0 0 0 0 0 0 0 0 0 0 0 0 0 0 0 0 0 0 0 0 0 0 0 0 0 0 0 0 0 0 0 0 0 0 0 0 0 0 0 0 0 0 0 0 0 0 0 0 0 0 0 0 0 0 0 0 0
204 158 26 0 0 0 0 0 0 24 43 0 0 0 0 0 0 0 0 0 0 0 0 0 0 0 0 0 0 0 0 0 0 0 0 0 0 0 0 0 0 0 0 0 0 0 0 0 0 0 0 0 0 0 0 0 0 0 0 0 0 0 0 0 0 0 0 0 0 0 0 0 0 0 0 0 0 0 0 0 0 0 0 0 0
278 232 130 3 0 0 0 0 0 0 0 0 0 0 0 0 0 0 0 0 0 0 0 0 0 0 0 0 0 0 0 0 0 0 0 0 0 0 0 0 0 0 0 0 0 0 0 0 0 0 0 0 0 0 0 0 0 0 0 0 0 0 0 0 0 0 0 0 0 0 0 0 0 0 0 0 0 0 0 0 0 0 0 0 0
331 266 0 2 0 0 0 0 0 0 0 14 1 0 0 0 0 0 0 0 0 0 0 0 0 0 0 0 0 0 0 0 0 0 0 0 0 0 0 0 0 0 0 0 0 0 0 0 0 0 0 0 0 0 0 0 0 0 0 0 0 0 0 0 0 0 0 0 0 0 0 0 0 0 0 0 0 0 0 0 0 0 0 0 0
336 259 0 0 0 0 0 0 0 0 0 20 0 0 0 0 0 0 0 0 0 0 0 0 0 0 0 0 0 0 0 0 0 0 0 0 0 0 0 0 0 0 0 0 0 0 0 0 0 0 0 0 0 0 0 0 0 0 0 0 0 0 0 0 0 0 0 0 0 0 0 0 0 0 0 0 0 0 0 0 0 0 0 0 0
125 0 0 0 0 0 0 0 0 0 0 0 0 0 0 0 0 0 0 0 0 0 0 0 0 0 0 0 0 0 0 0 0 0 0 0 0 0 0 0 0 0 0 0 0 0 0 0 0 0 0 0 0 0 0 0 0 0 0 0 0 0 0 0 0 0 0 0 0 0 0 0 0 0 0 0 0 0 0 0 0 0 0 0 0
331 291 8 0 0 0 0 0 0 0 0 0 0 0 0 0 0 0 0 0 0 0 0 0 0 0 0 0 0 0 0 0 0 0 0 0 0 0 0 0 0 0 0 0 0 0 0 0 0 0 0 0 0 0 0 0 0 0 0 0 0 0 0 0 0 0 0 0 0 0 0 0 0 0 0 0 0 0 0 0 0 0 0 0 0
355 366 285 198 0 0 0 0 0 0 0 0 0 0 0 0 0 0 0 0 0 0 0 0 0 0 0 0 0 0 0 0 0 0 0 0 0 0 0 0 0 0 0 0 0 0 0 0 0 0 0 0 0 0 0 0 0 0 0 0 0 0 0 0 0 0 0 0 0 0 0 0 0 0 0 0 0 0 0 0 0 0 0 0 0
367 361 310 224 110 0 0 0 0 0 0 0 0 0 0 0 0 0 0 0 0 0 0 0 0 0 0 0 0 0 0 0 0 0 0 0 0 0 0 0 0 0 0 0 0 0 0 0 0 0 0 0 0 0 0 0 0 0 0 0 0 0 0 0 0 0 0 0 0 0 0 0 0 0 0 0 0 0 0 0 0 0 0 0 0
334 340 325 272 92 0 0 0 0 0 0 0 0 0 0 0 0 0 0 0 0 0 0 0 0 0 0 0 0 0 0 0 0 0 0 0 0 0 0 0 0 0 0 0 0 0 0 0 0 0 0 0 0 0 0 0 0 0 0 0 0 0 0 0 0 0 0 0 0 0 0 0 0 0 0 0 0 0 0 0 0 0 0 0 0
406 421 379 287 55 0 0 0 0 0 0 0 0 0 0 0 0 0 0 0 0 0 0 0 0 0 0 0 0 0 0 0 0 0 0 0 0 0 0 0 0 0 0 0 0 0 0 0 0 0 0 0 0 0 0 0 0 0 0 0 0 0 0 0 0 0 0 0 0 0 0 0 0 0 0 0 0 0 0 0 0 0 0 0 0
Wind_Speed
11 11 11 11 12 12 12 11 10 8 6 6 5 5 6 6 4 4 7 7 7 8 8 7 8 9 9 8 7 7 8 8 9 10 11 11 11 12 13 14 13 11 11 10 11 10 9 9 8 8 8 7 5 4 5 6 7 6 4 4 3 4 6 4 3 1 3 4 5 4 3 3 3 5 7 7 7 6 7 7 9 9 9 7 6
10 11 10 10 10 11 11 10 9 9 8 8 7 6 6 5 3 5 5 8 10 9 8 8 9 8 8 8 8 8 9 9 9 11 11 11 11 12 13 14 13 11 12 11 9 10 10 9 8 8 8 7 6 5 6 9 8 7 6 6 4 4 6 7 3 3 0 4 4 5 4 3 4 3 8 9 9 8 10 11 11 10 10 8 7
11 11 9 9 8 10 11 11 10 10 10 8 7 8 7 6 5 6 9 9 11 10 10 10 9 8 7 7 8 9 10 10 10 11 10 10 11 12 13 13 13 12 11 10 9 10 10 10 8 9 9 8 6 5 nan 10 9 8 7 7 5 4 6 7 7 3 2 3 3 5 5 5 5 6 9 10 10 10 11 11 12 11 11 11 10
11 11 9 8 9 9 10 11 10 10 10 11 13 12 11 9 9 11 11 10 11 13 12 11 10 8 7 8 9 10 12 14 14 12 11 11 11 11 12 12 12 12 12 12 11 11 10 10 8 8 9 8 7 6 nan 9 10 9 8 7 6 4 5 7 7 7 6 3 3 4 4 6 6 10 12 14 14 13 13 14 13 14 14 14 14
10 11 10 9 9 9 9 9 8 10 11 13 13 14 13 12 11 12 12 12 13 14 14 12 10 8 7 8 11 12 13 13 15 15 15 14 12 11 11 11 12 12 12 12 12 13 11 10 9 9 9 9 8 7 7 10 10 11 9 9 8 6 8 9 8 9 9 6 4 5 6 6 7 10 11 14 16 15 14 15 15 15 17 17 16
10 10 10 9 9 8 9 9 8 8 10 12 13 14 13 11 10 11 11 11 13 15 14 12 10 8 6 8 10 12 12 12 12 12 14 16 16 13 12 11 11 11 12 12 13 14 13 11 10 10 10 10 8 7 8 9 12 12 11 11 11 10 9 9 10 10 9 8 8 8 8 8 9 10 10 13 16 16 15 15 16 16 18 20 18
8 8 8 7 8 8 9 8 9 8 8 9 11 10 8 7 8 7 7 7 10 12 12 11 9 7 6 8 9 10 9 10 11 12 14 15 15 16 14 13 12 11 11 12 13 14 14 13 12 12 11 11 9 8 9 9 13 13 13 13 13 13 11 9 12 11 10 11 11 9 11 11 11 12 11 13 15 16 17 17 17 16 16 18 22
5 5 6 6 6 6 8 8 9 9 7 8 8 6 5 6 7 7 8 10 13 13 13 11 8 6 8 10 10 11 11 10 11 13 15 15 15 14 15 16 15 13 11 11 12 13 14 14 13 13 12 11 10 9 10 10 13 14 13 15 15 14 12 11 11 11 10 11 12 11 12 13 13 15 16 16 18 16 15 16 18 18 18 17 19
5 4 4 5 6 8 10 9 10 11 11 11 11 10 10 9 9 12 14 16 17 14 12 12 11 13 14 12 12 13 13 11 12 14 15 16 17 16 16 16 15 14 13 12 13 14 14 14 14 13 13 11 10 11 13 13 15 14 14 16 16 15 12 14 15 13 12 13 13 13 14 14 13 15 16 16 16 17 19 20 20 20 20 20 19
4 3 3 5 7 8 9 9 10 10 10 10 9 10 11 12 13 13 12 11 13 10 9 11 13 15 15 14 13 14 14 14 12 9 13 17 19 20 20 19 18 17 16 15 14 14 14 15 15 12 12 11 11 12 13 13 15 15 16 18 18 16 15 16 16 15 15 14 12 14 14 13 13 14 15 14 18 23 24 23 23 22 22 21 21
8 8 8 8 8 8 9 9 10 10 9 8 8 9 10 10 10 10 11 11 10 10 11 12 13 14 11 12 13 15 15 15 12 13 13 16 19 20 20 18 19 18 17 16 16 18 20 21 20 17 14 12 12 7 7 10 12 14 16 20 20 19 17 17 16 18 17 15 15 15 14 13 12 15 15 18 19 22 24 23 24 24 23 24 22
11 11 11 10 10 10 10 10 11 10 9 9 8 7 8 8 8 7 8 7 7 8 10 9 10 10 10 10 12 14 16 15 14 15 19 18 19 20 19 18 17 17 18 19 22 23 23 23 22 22 22 22 22 21 18 12 10 12 15 17 20 20 21 21 19 19 19 18 18 16 17 14 14 16 17 20 19 22 23 24 25 25 24 22 24
11 11 12 12 12 13 13 13 13 12 11 10 9 9 9 9 9 9 8 8 8 9 8 8 9 9 9 9 11 12 14 16 15 20 22 20 18 18 20 19 19 19 20 21 22 22 24 24 24 23 22 25 25 24 23 22 19 16 16 17 16 15 18 19 21 21 21 20 20 19 19 17 17 16 19 20 23 23 24 23 23 23 23 24 26
13 13 13 14 14 15 15 16 15 14 13 13 13 13 13 12 12 11 12 12 12 11 10 11 10 10 10 10 9 14 18 22 22 23 23 23 21 21 22 21 21 21 21 22 22 23 24 24 26 24 22 23 24 24 25 24 23 22 22 21 20 17 17 19 18 20 23 21 21 19 18 21 19 20 21 25 26 24 24 23 24 24 23 22 27
17 17 17 17 17 17 18 17 17 17 16 16 16 16 16 15 15 15 16 16 16 15 14 14 14 15 14 14 17 20 20 22 21 22 22 22 21 20 21 22 22 22 23 24 26 27 27 27 26 24 23 23 24 25 25 24 25 24 24 23 22 20 20 20 21 21 22 22 20 18 20 22 20 25 27 25 24 25 27 27 28 26 28 30 32
18 19 19 18 19 18 19 19 18 nan nan nan nan 18 nan 18 19 18 19 19 nan 19 19 19 20 20 20 21 24 23 23 23 23 22 22 20 18 19 21 22 23 24 25 28 30 27 24 27 27 25 25 24 22 22 25 27 25 24 23 23 23 23 21 24 28 29 27 25 23 23 23 25 24 32 34 29 26 27 30 30 32 33 34 32 31
17 18 19 19 19 19 20 20 20 19 nan nan nan nan 19 19 19 20 nan nan nan 23 23 23 23 24 26 26 27 26 26 24 24 25 24 23 20 20 21 23 24 25 27 30 30 27 28 30 30 28 28 27 26 25 24 27 28 27 26 26 26 25 23 27 31 32 30 27 25 23 22 26 37 43 36 31 29 32 32 32 32 35 34 34 33
18 20 20 20 20 20 21 22 22 nan nan nan nan nan 20 21 22 23 nan nan nan 25 26 27 27 27 28 28 27 28 27 27 27 27 25 24 23 22 23 24 24 24 26 27 27 29 29 26 26 29 30 29 30 30 30 29 29 29 29 28 27 25 25 30 31 29 28 28 28 26 27 31 34 35 33 31 34 37 35 31 33 36 33 34 36
19 20 19 19 21 21 nan nan nan nan nan nan nan nan nan 22 23 25 26 nan nan 26 28 30 29 30 31 30 33 32 30 30 31 29 29 29 26 25 24 25 26 26 27 27 26 28 31 32 31 30 29 30 33 32 31 30 30 30 30 30 28 27 28 32 32 32 31 32 31 31 31 34 36 35 32 31 32 33 28 29 35 35 33 33 36
18 19 20 20 21 22 22 nan nan nan nan nan nan nan 20 22 23 nan nan nan nan nan nan 29 31 30 31 33 33 33 32 31 33 33 34 32 30 27 26 27 27 29 29 29 27 25 30 33 35 37 36 34 31 31 31 31 30 30 31 29 27 25 30 32 32 33 33 32 32 32 32 34 35 34 34 29 28 30 28 34 34 32 30 33 36
20 20 20 nan nan nan nan nan nan nan nan nan nan nan 23 nan nan nan nan nan nan nan nan nan nan nan nan nan nan nan nan nan nan nan nan nan 32 31 29 29 29 30 30 29 31 31 32 33 33 35 34 34 33 31 31 30 28 28 27 25 27 29 31 32 31 33 34 34 34 33 32 33 33 33 33 31 30 28 29 34 31 28 30 34 38
21 21 nan nan nan nan nan nan nan nan nan nan nan nan nan nan nan nan nan nan nan nan nan nan nan nan nan nan nan nan nan nan nan nan nan nan nan nan 32 31 32 33 36 37 37 36 35 34 32 33 33 35 36 37 36 35 32 30 28 25 25 25 29 33 34 35 34 33 32 33 32 32 32 32 34 35 35 36 37 37 33 33 36 38 40
21 21 nan nan nan nan nan nan nan nan nan nan nan nan nan nan nan nan nan nan nan nan nan nan nan nan nan nan nan nan nan nan nan nan nan nan nan nan nan 31 31 32 36 37 36 37 37 36 35 36 35 36 37 39 38 37 36 33 30 28 27 31 34 34 35 35 34 32 34 34 33 33 34 34 35 36 37 38 39 39 38 39 41 nan nan
20 20 19 nan nan nan nan nan nan nan nan nan nan nan nan nan nan nan nan nan nan nan nan nan nan nan nan nan nan nan nan nan nan nan nan nan nan nan nan 32 31 33 37 38 38 39 38 37 37 39 40 40 40 41 41 40 38 38 38 37 37 35 34 nan 36 36 36 35 35 36 36 36 37 38 38 39 40 41 42 42 42 43 nan nan nan
19 18 nan nan nan nan nan nan nan nan nan nan nan nan nan nan nan nan nan nan nan nan nan nan nan nan nan nan nan nan nan nan nan nan nan nan nan nan nan 38 37 42 43 40 40 39 42 44 nan 43 nan nan nan nan nan nan nan nan nan nan nan nan nan nan 37 37 38 nan nan 37 38 39 nan nan nan nan 43 nan nan nan nan nan nan nan nan
19 nan nan nan nan nan nan nan nan nan nan nan nan nan nan nan nan nan nan nan nan nan nan nan nan nan nan nan 27 27 27 28 30 31 33 nan nan 40 43 44 45 46 46 45 46 46 44 42 42 41 41 nan nan nan nan nan nan nan nan nan nan nan nan nan nan nan nan nan nan nan nan nan nan nan nan nan nan nan nan nan nan nan nan nan nan
19 nan nan nan nan nan nan nan nan nan nan nan nan nan nan nan nan nan nan nan nan nan nan nan nan nan nan nan 28 28 28 29 28 29 31 32 35 36 39 42 46 46 44 42 42 40 38 nan nan nan nan nan nan nan nan nan nan nan nan nan nan nan nan nan nan nan nan 37 38 39 40 41 41 nan nan nan nan nan nan nan nan nan nan nan nan
21 nan nan nan nan nan nan nan nan nan nan nan nan nan nan nan nan nan nan nan nan nan nan nan nan nan nan nan nan nan 29 30 30 29 29 30 32 35 35 37 39 40 40 38 38 nan nan nan nan nan nan nan nan nan nan nan nan nan nan nan nan nan nan nan nan nan nan nan 38 38 38 38 39 39 nan nan nan nan nan nan nan nan nan nan nan
nan nan nan nan nan nan nan nan nan nan nan nan nan nan nan nan nan nan nan nan nan nan nan nan nan nan nan nan nan nan nan 30 28 nan 26 26 29 33 34 nan nan nan nan 38 nan 37 38 39 nan nan nan nan nan nan nan nan nan nan nan nan nan nan nan nan nan nan nan nan nan nan nan nan nan nan nan nan nan nan nan nan nan nan nan nan nan
nan nan nan nan nan nan nan nan nan nan nan nan nan nan nan nan nan nan nan nan nan nan nan nan nan nan nan nan nan nan 29 28 26 nan nan nan nan nan nan nan nan nan nan nan nan nan nan nan nan nan nan nan nan nan nan nan nan nan nan nan nan nan nan nan nan nan nan nan nan nan nan nan nan nan nan nan nan nan nan nan nan nan nan nan nan
nan nan nan nan nan nan nan nan nan nan nan nan nan nan nan nan nan nan nan nan nan nan nan nan nan nan nan nan nan nan nan nan 28 26 29 31 nan nan nan nan nan nan nan nan nan nan nan nan nan nan nan nan nan nan nan nan nan nan nan nan nan nan nan nan nan nan nan nan nan nan nan nan nan nan nan nan nan nan nan nan nan nan nan nan nan
nan nan nan nan nan nan nan nan nan nan nan nan nan nan nan nan nan nan nan nan nan nan nan nan nan nan nan nan nan nan 25 25 24 24 24 nan nan nan nan nan nan nan nan nan nan nan nan nan nan nan nan nan nan nan nan nan nan nan nan nan nan nan nan nan nan nan nan nan nan nan nan nan nan nan nan nan nan nan nan nan nan nan nan nan nan
nan nan nan nan nan nan nan nan nan nan nan nan nan nan nan nan nan nan nan nan nan nan nan nan nan nan nan nan nan nan nan nan nan nan nan nan nan nan nan nan nan nan nan nan nan nan nan nan nan nan nan nan nan nan nan nan nan nan nan nan nan nan nan nan nan nan nan nan nan nan nan nan nan nan nan nan nan nan nan nan nan nan nan nan nan
nan nan nan nan nan nan nan nan nan nan nan nan nan nan nan nan nan nan nan nan nan nan nan nan nan nan nan nan nan nan nan nan nan nan nan nan nan nan nan nan nan nan nan nan nan nan nan nan nan nan nan nan nan nan nan nan nan nan nan nan nan nan nan nan nan nan nan nan nan nan nan nan nan nan nan nan nan nan nan nan nan nan nan nan nan
nan nan nan nan nan nan nan nan nan nan nan nan nan nan nan nan nan nan nan nan nan nan nan nan nan nan nan nan nan nan nan nan nan nan nan nan nan nan nan nan nan nan nan nan nan nan nan nan nan nan nan nan nan nan nan nan nan nan nan nan nan nan nan nan nan nan nan nan nan nan nan nan nan nan nan nan nan nan nan nan nan nan nan nan nan
nan nan nan nan nan nan nan nan nan nan nan nan nan nan nan nan nan nan nan nan nan nan nan nan nan nan nan nan nan nan nan nan nan nan nan nan nan nan nan nan nan nan nan nan nan nan nan nan nan nan nan nan nan nan nan nan nan nan nan nan nan nan nan nan nan nan nan nan nan nan nan nan nan nan nan nan nan nan nan nan nan nan nan nan nan
nan nan nan nan nan nan nan nan nan nan nan nan nan nan nan nan nan nan nan nan nan nan nan nan nan nan nan nan nan nan nan nan nan nan nan nan nan nan nan nan nan nan nan nan nan nan nan nan nan nan nan nan nan nan nan nan nan nan nan nan nan nan nan nan nan nan nan nan nan nan nan nan nan nan nan nan nan nan nan nan nan nan nan nan nan
nan nan nan nan nan nan nan nan nan nan nan nan nan nan nan nan nan nan nan nan nan nan nan nan nan nan nan nan nan nan nan nan nan nan nan nan nan nan nan nan nan nan nan nan nan nan nan nan nan nan nan nan nan nan nan nan nan nan nan nan nan nan nan nan nan nan nan nan nan nan nan nan nan nan nan nan nan nan nan nan nan nan nan nan nan
nan nan nan nan nan nan nan nan nan nan nan nan nan nan nan nan nan nan nan nan nan nan nan nan nan nan nan nan nan nan nan nan nan nan nan nan nan nan nan nan nan nan nan nan nan nan nan nan nan nan nan nan nan nan nan nan nan nan nan nan nan nan nan nan nan nan nan nan nan nan nan nan nan nan nan nan nan nan nan nan nan nan nan nan nan
15 nan nan nan nan nan nan nan nan nan nan nan nan nan nan nan nan nan nan nan nan nan nan nan nan nan nan nan nan nan nan nan nan nan nan nan nan nan nan nan nan nan nan nan nan nan nan nan nan nan nan nan nan nan nan nan nan nan nan nan nan nan nan nan nan nan nan nan nan nan nan nan nan nan nan nan nan nan nan nan nan nan nan nan nan
16 17 18 nan nan nan nan nan nan nan nan nan nan nan nan nan nan nan nan nan nan nan nan nan nan nan nan nan nan nan nan nan nan nan nan nan nan nan nan nan nan nan nan nan nan nan nan nan nan nan nan nan nan nan nan nan nan nan nan nan nan nan nan nan nan nan nan nan nan nan nan nan nan nan nan nan nan nan nan nan nan nan nan nan nan
19 19 nan nan nan nan nan nan nan nan nan nan nan nan nan nan nan nan nan nan nan nan nan nan nan nan nan nan nan nan nan nan nan nan nan nan nan nan nan nan nan nan nan nan nan nan nan nan nan nan nan nan nan nan nan nan nan nan nan nan nan nan nan nan nan nan nan nan nan nan nan nan nan nan nan nan nan nan nan nan nan nan nan nan nan
21 21 22 nan nan nan nan nan nan nan nan nan nan nan nan nan nan nan nan nan nan nan nan nan nan nan nan nan nan nan nan nan nan nan nan nan nan nan nan nan nan nan nan nan nan nan nan nan nan nan nan nan nan nan nan nan nan nan nan nan nan nan nan nan nan nan nan nan nan nan nan nan nan nan nan nan nan nan nan nan nan nan nan nan nan
22 21 nan nan nan nan nan nan nan nan nan nan nan nan nan nan nan nan nan nan nan nan nan nan nan nan nan nan nan nan nan nan nan nan nan nan nan nan nan nan nan nan nan nan nan nan nan nan nan nan nan nan nan nan nan nan nan nan nan nan nan nan nan nan nan nan nan nan nan nan nan nan nan nan nan nan nan nan nan nan nan nan nan nan nan
23 23 nan nan nan nan nan nan nan nan nan nan nan nan nan nan nan nan nan nan nan nan nan nan nan nan nan nan nan nan nan nan nan nan nan nan nan nan nan nan nan nan nan nan nan nan nan nan nan nan nan nan nan nan nan nan nan nan nan nan nan nan nan nan nan nan nan nan nan nan nan nan nan nan nan nan nan nan nan nan nan nan nan nan nan
24 nan nan nan nan nan nan nan nan nan nan nan nan nan nan nan nan nan nan nan nan nan nan nan nan nan nan nan nan nan nan nan nan nan nan nan nan nan nan nan nan nan nan nan nan nan nan nan nan nan nan nan nan nan nan nan nan nan nan nan nan nan nan nan nan nan nan nan nan nan nan nan nan nan nan nan nan nan nan nan nan nan nan nan nan
24 23 nan nan nan nan nan nan nan nan nan nan nan nan nan nan nan nan nan nan nan nan nan nan nan nan nan nan nan nan nan nan nan nan nan nan nan nan nan nan nan nan nan nan nan nan nan nan nan nan nan nan nan nan nan nan nan nan nan nan nan nan nan nan nan nan nan nan nan nan nan nan nan nan nan nan nan nan nan nan nan nan nan nan nan
24 23 24 24 nan nan nan nan nan nan nan nan nan nan nan nan nan nan nan nan nan nan nan nan nan nan nan nan nan nan nan nan nan nan nan nan nan nan nan nan nan nan nan nan nan nan nan nan nan nan nan nan nan nan nan nan nan nan nan nan nan nan nan nan nan nan nan nan nan nan nan nan nan nan nan nan nan nan nan nan nan nan nan nan nan
24 24 24 25 24 nan nan nan nan nan nan nan nan nan nan nan nan nan nan nan nan nan nan nan nan nan nan nan nan nan nan nan nan nan nan nan nan nan nan nan nan nan nan nan nan nan nan nan nan nan nan nan nan nan nan nan nan nan nan nan nan nan nan nan nan nan nan nan nan nan nan nan nan nan nan nan nan nan nan nan nan nan nan nan nan
23 24 25 25 nan nan nan nan nan nan nan nan nan nan nan nan nan nan nan nan nan nan nan nan nan nan nan nan nan nan nan nan nan nan nan nan nan nan nan nan nan nan nan nan nan nan nan nan nan nan nan nan nan nan nan nan nan nan nan nan nan nan nan nan nan nan nan nan nan nan nan nan nan nan nan nan nan nan nan nan nan nan nan nan nan
22 24 25 25 nan nan nan nan nan nan nan nan nan nan nan nan nan nan nan nan nan nan nan nan nan nan nan nan nan nan nan nan nan nan nan nan nan nan nan nan nan nan nan nan nan nan nan nan nan nan nan nan nan nan nan nan nan nan nan nan nan nan nan nan nan nan nan nan nan nan nan nan nan nan nan nan nan nan nan nan nan nan nan nan nan
Wind_Direction
270 266 262 259 267 279 277 263 250 246 263 270 252 226 214 213 243 244 236 230 220 211 210 207 209 215 216 221 222 223 225 221 227 237 244 246 248 251 248 248 246 236 235 230 236 241 241 237 229 232 238 227 213 209 260 267 271 281 277 286 308 285 298 310 324 314 248 264 277 286 311 317 301 317 305 299 292 288 288 287 280 276 280 269 254
263 257 249 249 260 265 270 266 253 240 239 240 239 232 224 222 234 269 276 246 237 221 220 216 215 211 210 213 220 229 235 234 231 236 243 250 252 253 255 256 255 249 245 243 240 247 250 249 241 235 238 235 220 236 265 272 282 289 293 301 313 312 301 303 317 287 191 249 266 280 292 308 281 289 301 299 292 287 273 275 272 272 279 280 265
249 248 246 245 244 239 241 243 239 232 231 228 227 226 217 206 225 253 247 232 232 231 219 212 206 209 206 218 225 228 234 236 234 236 243 255 260 259 260 263 265 265 261 256 251 251 252 254 252 252 251 250 242 243 nan 275 280 291 294 285 303 304 297 303 287 287 255 222 266 283 288 287 289 294 276 277 279 279 278 273 275 275 276 279 278
250 246 240 233 231 226 221 224 224 227 230 230 226 225 219 209 209 227 229 229 232 233 224 208 199 207 205 212 224 225 225 227 229 235 244 253 259 263 264 267 271 272 273 269 264 260 261 258 256 256 257 258 252 245 nan 271 284 289 289 286 287 298 290 289 296 286 276 300 233 273 286 275 251 263 267 263 264 262 267 269 267 271 275 276 279
247 248 241 235 231 228 226 229 230 225 223 221 221 224 219 206 202 215 221 221 232 236 227 213 197 201 210 237 239 239 239 241 240 237 234 239 251 258 261 265 271 275 277 275 275 273 270 272 271 267 262 265 256 253 257 275 280 283 292 289 299 284 268 287 294 287 289 308 275 249 260 247 249 263 270 271 266 265 266 271 271 272 276 280 281
245 246 243 242 241 241 235 234 232 228 222 220 217 221 222 212 197 208 220 211 215 233 232 218 201 195 207 233 244 244 241 245 250 251 248 244 243 244 250 259 266 272 275 276 276 278 281 283 282 280 277 278 275 271 267 278 284 290 292 289 288 279 272 267 278 289 297 303 297 276 265 272 253 254 265 272 275 271 273 273 271 271 279 284 277
238 245 244 245 250 256 256 254 251 247 234 231 234 232 223 222 227 215 226 244 240 230 232 225 204 209 240 248 249 251 251 250 252 253 252 249 246 247 248 252 259 263 268 275 278 280 283 283 282 282 283 283 284 284 283 277 282 292 297 295 286 283 281 283 282 289 293 280 256 258 267 256 259 263 254 269 270 276 283 283 273 267 269 279 285
245 231 226 216 232 260 269 266 266 262 248 243 253 272 281 268 266 263 256 261 251 241 238 237 223 237 247 248 246 245 242 237 239 245 251 254 253 254 257 259 259 257 257 264 272 277 281 283 282 281 283 283 285 284 284 288 284 286 290 286 286 286 287 280 279 284 282 274 264 267 259 260 251 248 254 265 271 268 273 271 280 280 277 274 282
264 249 232 218 217 230 242 252 259 258 261 258 261 261 257 250 236 238 242 250 251 242 243 245 238 233 242 248 245 247 246 241 240 245 252 254 257 257 259 261 265 263 262 260 263 270 271 275 276 278 281 294 305 299 294 294 286 286 282 285 287 290 288 277 280 281 271 268 266 259 267 267 266 269 277 276 290 284 277 269 269 275 278 280 275
274 263 256 242 236 231 227 230 240 246 248 247 244 242 242 242 243 242 243 252 271 274 251 238 239 236 239 242 247 247 248 247 250 260 256 253 254 253 250 250 253 256 259 261 265 266 267 266 267 291 299 302 306 310 312 312 298 288 284 285 289 292 290 286 289 292 289 287 287 282 282 287 291 294 296 295 283 277 282 282 283 283 282 280 280
261 268 265 260 253 242 233 226 230 233 232 234 233 234 235 239 242 240 237 239 244 247 249 245 247 241 230 237 241 243 247 252 264 268 265 256 252 252 253 251 254 254 253 256 261 263 260 259 258 250 250 259 266 285 301 303 304 303 298 297 297 296 289 288 288 287 290 293 286 284 289 293 296 296 299 293 292 294 294 293 291 293 296 293 289
271 273 278 277 275 271 264 260 256 251 248 247 246 247 246 247 246 249 249 240 237 248 250 252 251 261 273 271 259 252 249 248 256 263 262 257 250 249 251 253 252 252 255 257 257 256 255 255 254 255 260 264 262 258 256 268 288 297 298 301 300 305 297 291 286 282 285 288 287 295 293 295 294 293 288 285 292 286 291 296 301 302 299 298 290
265 271 277 278 278 278 277 277 275 274 274 274 267 260 261 263 264 261 260 263 261 253 256 257 253 249 258 264 262 262 256 245 259 259 258 256 251 250 251 253 255 256 258 260 259 256 255 254 255 255 254 256 259 262 260 258 256 268 277 271 274 290 295 301 296 293 292 294 295 296 300 296 291 293 292 290 286 289 290 296 300 302 299 298 294
257 255 258 266 269 269 271 272 273 275 274 271 270 272 270 272 270 273 271 265 265 266 261 262 263 263 260 263 261 259 257 239 244 251 256 256 249 244 246 246 248 249 253 258 258 257 257 260 261 258 257 257 259 260 262 262 261 260 263 267 270 273 284 292 295 298 295 293 294 296 297 290 292 291 292 282 289 298 300 302 299 297 299 296 286
252 251 252 253 255 258 262 263 264 263 264 266 268 268 274 270 270 272 273 273 273 272 270 267 267 266 265 267 269 266 257 247 250 249 247 248 245 248 248 249 250 249 251 253 253 253 256 261 264 267 263 263 265 268 267 266 262 262 266 269 268 270 268 270 277 281 282 282 285 288 283 286 285 280 286 294 299 302 305 300 302 297 282 273 276
256 254 254 255 257 259 262 262 262 nan nan nan nan 266 nan 269 271 272 272 270 nan 270 268 269 266 266 267 270 274 270 265 256 256 254 250 247 243 253 253 253 252 248 247 247 250 253 257 261 262 261 259 260 262 271 272 267 264 267 269 268 268 268 269 265 264 264 268 273 274 275 275 278 283 275 274 285 294 289 280 278 283 286 289 289 289
258 260 262 262 262 263 265 266 267 265 nan nan nan nan 267 269 271 271 nan nan nan 266 268 268 267 267 269 271 273 272 269 262 260 259 256 251 251 256 259 263 260 254 253 258 261 258 252 253 254 255 255 257 259 264 264 268 267 269 271 271 270 268 267 264 263 265 270 273 272 271 270 268 268 281 296 304 294 287 286 290 296 294 294 294 289
268 268 268 268 269 268 268 269 267 nan nan nan nan nan 268 268 270 270 nan nan nan 269 271 270 267 266 270 273 275 274 273 268 261 255 254 252 252 258 260 265 266 265 259 257 256 255 253 251 255 256 257 257 252 248 246 251 261 265 267 268 269 270 269 268 269 267 266 268 267 263 262 262 275 283 293 303 301 293 294 301 298 295 298 297 294
272 273 273 272 272 272 nan nan nan nan nan nan nan nan nan 271 270 271 272 nan nan 272 271 272 270 268 267 267 271 270 270 269 265 263 259 255 256 260 260 264 269 270 266 262 256 256 256 254 257 255 255 254 251 252 252 255 261 262 263 265 267 269 269 271 274 272 269 268 267 268 267 269 273 277 286 300 298 292 291 290 286 296 298 296 292
270 272 273 271 272 272 273 nan nan nan nan nan nan nan 270 271 273 nan nan nan nan nan nan 274 276 273 271 271 268 266 268 269 268 260 259 259 256 260 264 266 270 273 272 273 269 262 261 259 256 252 250 254 257 259 261 262 263 262 263 265 267 266 269 273 274 274 272 273 271 267 264 262 263 271 281 290 293 296 294 282 288 296 297 298 299
268 270 270 nan nan nan nan nan nan nan nan nan nan nan 273 nan nan nan nan nan nan nan nan nan nan nan nan nan nan nan nan nan nan nan nan nan 260 261 266 265 267 271 274 275 272 270 264 261 260 257 255 256 255 255 257 260 261 262 265 266 265 262 264 270 273 279 273 273 270 267 263 261 263 265 269 273 275 280 279 278 281 287 285 287 283
266 267 nan nan nan nan nan nan nan nan nan nan nan nan nan nan nan nan nan nan nan nan nan nan nan nan nan nan nan nan nan nan nan nan nan nan nan nan 267 268 266 266 269 267 268 268 268 267 265 260 257 258 258 256 252 252 254 260 258 259 259 262 264 266 267 269 272 272 272 270 268 269 268 267 268 268 267 269 269 269 269 271 276 280 284
267 269 nan nan nan nan nan nan nan nan nan nan nan nan nan nan nan nan nan nan nan nan nan nan nan nan nan nan nan nan nan nan nan nan nan nan nan nan nan 270 266 268 271 271 271 270 267 266 265 268 266 262 259 256 255 254 255 254 252 256 264 269 265 265 268 271 272 274 273 273 270 269 270 268 267 267 268 269 271 271 272 270 269 nan nan
268 270 271 nan nan nan nan nan nan nan nan nan nan nan nan nan nan nan nan nan nan nan nan nan nan nan nan nan nan nan nan nan nan nan nan nan nan nan nan 273 271 271 271 271 269 268 269 267 267 267 268 267 264 261 258 257 257 256 257 258 258 260 263 nan 268 270 271 270 270 270 271 270 271 270 269 269 269 270 271 272 272 273 nan nan nan
270 271 nan nan nan nan nan nan nan nan nan nan nan nan nan nan nan nan nan nan nan nan nan nan nan nan nan nan nan nan nan nan nan nan nan nan nan nan nan 274 275 275 270 269 268 266 266 268 nan 270 nan nan nan nan nan nan nan nan nan nan nan nan nan nan 269 271 271 nan nan 272 271 270 nan nan nan nan 274 nan nan nan nan nan nan nan nan
268 nan nan nan nan nan nan nan nan nan nan nan nan nan nan nan nan nan nan nan nan nan nan nan nan nan nan nan 285 284 280 276 273 271 269 nan nan 262 263 266 268 267 268 268 269 270 270 270 269 269 266 nan nan nan nan nan nan nan nan nan nan nan nan nan nan nan nan nan nan nan nan nan nan nan nan nan nan nan nan nan nan nan nan nan nan
268 nan nan nan nan nan nan nan nan nan nan nan nan nan nan nan nan nan nan nan nan nan nan nan nan nan nan nan 287 285 282 279 276 273 269 267 268 267 268 268 268 268 267 268 268 268 268 nan nan nan nan nan nan nan nan nan nan nan nan nan nan nan nan nan nan nan nan 275 275 275 277 278 278 nan nan nan nan nan nan nan nan nan nan nan nan
274 nan nan nan nan nan nan nan nan nan nan nan nan nan nan nan nan nan nan nan nan nan nan nan nan nan nan nan nan nan 284 282 280 275 269 265 265 265 265 267 267 269 269 268 266 nan nan nan nan nan nan nan nan nan nan nan nan nan nan nan nan nan nan nan nan nan nan nan 275 276 276 277 276 276 nan nan nan nan nan nan nan nan nan nan nan
nan nan nan nan nan nan nan nan nan nan nan nan nan nan nan nan nan nan nan nan nan nan nan nan nan nan nan nan nan nan nan 282 282 nan 273 270 267 266 265 nan nan nan nan 265 nan 262 261 261 nan nan nan nan nan nan nan nan nan nan nan nan nan nan nan nan nan nan nan nan nan nan nan nan nan nan nan nan nan nan nan nan nan nan nan nan nan
nan nan nan nan nan nan nan nan nan nan nan nan nan nan nan nan nan nan nan nan nan nan nan nan nan nan nan nan nan nan 288 287 282 nan nan nan nan nan nan nan nan nan nan nan nan nan nan nan nan nan nan nan nan nan nan nan nan nan nan nan nan nan nan nan nan nan nan nan nan nan nan nan nan nan nan nan nan nan nan nan nan nan nan nan nan
nan nan nan nan nan nan nan nan nan nan nan nan nan nan nan nan nan nan nan nan nan nan nan nan nan nan nan nan nan nan nan nan 278 274 267 263 nan nan nan nan nan nan nan nan nan nan nan nan nan nan nan nan nan nan nan nan nan nan nan nan nan nan nan nan nan nan nan nan nan nan nan nan nan nan nan nan nan nan nan nan nan nan nan nan nan
nan nan nan nan nan nan nan nan nan nan nan nan nan nan nan nan nan nan nan nan nan nan nan nan nan nan nan nan nan nan 288 287 284 274 269 nan nan nan nan nan nan nan nan nan nan nan nan nan nan nan nan nan nan nan nan nan nan nan nan nan nan nan nan nan nan nan nan nan nan nan nan nan nan nan nan nan nan nan nan nan nan nan nan nan nan
nan nan nan nan nan nan nan nan nan nan nan nan nan nan nan nan nan nan nan nan nan nan nan nan nan nan nan nan nan nan nan nan nan nan nan nan nan nan nan nan nan nan nan nan nan nan nan nan nan nan nan nan nan nan nan nan nan nan nan nan nan nan nan nan nan nan nan nan nan nan nan nan nan nan nan nan nan nan nan nan nan nan nan nan nan
nan nan nan nan nan nan nan nan nan nan nan nan nan nan nan nan nan nan nan nan nan nan nan nan nan nan nan nan nan nan nan nan nan nan nan nan nan nan nan nan nan nan nan nan nan nan nan nan nan nan nan nan nan nan nan nan nan nan nan nan nan nan nan nan nan nan nan nan nan nan nan nan nan nan nan nan nan nan nan nan nan nan nan nan nan
nan nan nan nan nan nan nan nan nan nan nan nan nan nan nan nan nan nan nan nan nan nan nan nan nan nan nan nan nan nan nan nan nan nan nan nan nan nan nan nan nan nan nan nan nan nan nan nan nan nan nan nan nan nan nan nan nan nan nan nan nan nan nan nan nan nan nan nan nan nan nan nan nan nan nan nan nan nan nan nan nan nan nan nan nan
nan nan nan nan nan nan nan nan nan nan nan nan nan nan nan nan nan nan nan nan nan nan nan nan nan nan nan nan nan nan nan nan nan nan nan nan nan nan nan nan nan nan nan nan nan nan nan nan nan nan nan nan nan nan nan nan nan nan nan nan nan nan nan nan nan nan nan nan nan nan nan nan nan nan nan nan nan nan nan nan nan nan nan nan nan
nan nan nan nan nan nan nan nan nan nan nan nan nan nan nan nan nan nan nan nan nan nan nan nan nan nan nan nan nan nan nan nan nan nan nan nan nan nan nan nan nan nan nan nan nan nan nan nan nan nan nan nan nan nan nan nan nan nan nan nan nan nan nan nan nan nan nan nan nan nan nan nan nan nan nan nan nan nan nan nan nan nan nan nan nan
nan nan nan nan nan nan nan nan nan nan nan nan nan nan nan nan nan nan nan nan nan nan nan nan nan nan nan nan nan nan nan nan nan nan nan nan nan nan nan nan nan nan nan nan nan nan nan nan nan nan nan nan nan nan nan nan nan nan nan nan nan nan nan nan nan nan nan nan nan nan nan nan nan nan nan nan nan nan nan nan nan nan nan nan nan
nan nan nan nan nan nan nan nan nan nan nan nan nan nan nan nan nan nan nan nan nan nan nan nan nan nan nan nan nan nan nan nan nan nan nan nan nan nan nan nan nan nan nan nan nan nan nan nan nan nan nan nan nan nan nan nan nan nan nan nan nan nan nan nan nan nan nan nan nan nan nan nan nan nan nan nan nan nan nan nan nan nan nan nan nan
257 nan nan nan nan nan nan nan nan nan nan nan nan nan nan nan nan nan nan nan nan nan nan nan nan nan nan nan nan nan nan nan nan nan nan nan nan nan nan nan nan nan nan nan nan nan nan nan nan nan nan nan nan nan nan nan nan nan nan nan nan nan nan nan nan nan nan nan nan nan nan nan nan nan nan nan nan nan nan nan nan nan nan nan nan
253 262 265 nan nan nan nan nan nan nan nan nan nan nan nan nan nan nan nan nan nan nan nan nan nan nan nan nan nan nan nan nan nan nan nan nan nan nan nan nan nan nan nan nan nan nan nan nan nan nan nan nan nan nan nan nan nan nan nan nan nan nan nan nan nan nan nan nan nan nan nan nan nan nan nan nan nan nan nan nan nan nan nan nan nan
254 260 nan nan nan nan nan nan nan nan nan nan nan nan nan nan nan nan nan nan nan nan nan nan nan nan nan nan nan nan nan nan nan nan nan nan nan nan nan nan nan nan nan nan nan nan nan nan nan nan nan nan nan nan nan nan nan nan nan nan nan nan nan nan nan nan nan nan nan nan nan nan nan nan nan nan nan nan nan nan nan nan nan nan nan
256 260 264 nan nan nan nan nan nan nan nan nan nan nan nan nan nan nan nan nan nan nan nan nan nan nan nan nan nan nan nan nan nan nan nan nan nan nan nan nan nan nan nan nan nan nan nan nan nan nan nan nan nan nan nan nan nan nan nan nan nan nan nan nan nan nan nan nan nan nan nan nan nan nan nan nan nan nan nan nan nan nan nan nan nan
257 262 nan nan nan nan nan nan nan nan nan nan nan nan nan nan nan nan nan nan nan nan nan nan nan nan nan nan nan nan nan nan nan nan nan nan nan nan nan nan nan nan nan nan nan nan nan nan nan nan nan nan nan nan nan nan nan nan nan nan nan nan nan nan nan nan nan nan nan nan nan nan nan nan nan nan nan nan nan nan nan nan nan nan nan
261 267 nan nan nan nan nan nan nan nan nan nan nan nan nan nan nan nan nan nan nan nan nan nan nan nan nan nan nan nan nan nan nan nan nan nan nan nan nan nan nan nan nan nan nan nan nan nan nan nan nan nan nan nan nan nan nan nan nan nan nan nan nan nan nan nan nan nan nan nan nan nan nan nan nan nan nan nan nan nan nan nan nan nan nan
261 nan nan nan nan nan nan nan nan nan nan nan nan nan nan nan nan nan nan nan nan nan nan nan nan nan nan nan nan nan nan nan nan nan nan nan nan nan nan nan nan nan nan nan nan nan nan nan nan nan nan nan nan nan nan nan nan nan nan nan nan nan nan nan nan nan nan nan nan nan nan nan nan nan nan nan nan nan nan nan nan nan nan nan nan
260 266 nan nan nan nan nan nan nan nan nan nan nan nan nan nan nan nan nan nan nan nan nan nan nan nan nan nan nan nan nan nan nan nan nan nan nan nan nan nan nan nan nan nan nan nan nan nan nan nan nan nan nan nan nan nan nan nan nan nan nan nan nan nan nan nan nan nan nan nan nan nan nan nan nan nan nan nan nan nan nan nan nan nan nan
260 266 272 275 nan nan nan nan nan nan nan nan nan nan nan nan nan nan nan nan nan nan nan nan nan nan nan nan nan nan nan nan nan nan nan nan nan nan nan nan nan nan nan nan nan nan nan nan nan nan nan nan nan nan nan nan nan nan nan nan nan nan nan nan nan nan nan nan nan nan nan nan nan nan nan nan nan nan nan nan nan nan nan nan nan
260 265 268 272 273 nan nan nan nan nan nan nan nan nan nan nan nan nan nan nan nan nan nan nan nan nan nan nan nan nan nan nan nan nan nan nan nan nan nan nan nan nan nan nan nan nan nan nan nan nan nan nan nan nan nan nan nan nan nan nan nan nan nan nan nan nan nan nan nan nan nan nan nan nan nan nan nan nan nan nan nan nan nan nan nan
260 264 267 269 nan nan nan nan nan nan nan nan nan nan nan nan nan nan nan nan nan nan nan nan nan nan nan nan nan nan nan nan nan nan nan nan nan nan nan nan nan nan nan nan nan nan nan nan nan nan nan nan nan nan nan nan nan nan nan nan nan nan nan nan nan nan nan nan nan nan nan nan nan nan nan nan nan nan nan nan nan nan nan nan nan
263 265 267 269 nan nan nan nan nan nan nan nan nan nan nan nan nan nan nan nan nan nan nan nan nan nan nan nan nan nan nan nan nan nan nan nan nan nan nan nan nan nan nan nan nan nan nan nan nan nan nan nan nan nan nan nan nan nan nan nan nan nan nan nan nan nan nan nan nan nan nan nan nan nan nan nan nan nan nan nan nan nan nan nan nan